Weather History for Danbury, CT

Change the Weather History Date:

Friday, February 21, 2014

  Actual Average Record
Temperature  
Mean Temperature 35 °F -  
Max Temperature 42 °F 41 °F 64 °F (1953)
Min Temperature 26 °F 22 °F -6 °F (1950)
Degree Days  
Heating Degree Days 30    
Moisture  
Dew Point 33 °F    
Average Humidity 93    
Maximum Humidity 97    
Minimum Humidity 89    
Precipitation  
Precipitation 0.14 in - - ()
Sea Level Pressure  
Sea Level Pressure 29.89 in    
Wind  
Wind Speed 6 mph (ENE)    
Max Wind Speed 10 mph    
Max Gust Speed -    
Visibility 2 miles    
Events Fog , Rain , Thunderstorm    
Averages and records for this station are not official NWS values.
T = Trace of Precipitation, MM = Missing Value Source: NWS Daily Summary

Daily Weather History Graph

Daily Weather History Graph

Search for Another Location

Airport:

Trip Planner

Search our weather history database for the weather conditions in past years. The results will help you decide how hot, cold, wet, or windy it might be!

Date:

Astronomy

Feb. 21, 2014 Rise Set
Actual Time 6:40 AM EST 5:35 PM EST
Civil Twilight 6:12 AM EST 6:03 PM EST
Nautical Twilight 5:40 AM EST 6:35 PM EST
Astronomical Twilight 5:08 AM EST 7:07 PM EST
Moon No Moon Rise 9:58 AM EST (2/21)
Length of Visible Light 11h 50m
Length of Day
10h 54m
Waning Gibbous, 61% of the Moon is Illuminated
Feb 21
Waning Gibbous
Feb 22
Last Quarter
Mar 1
New
Mar 8
First Quarter
Mar 16
Full

Hourly Weather History & Observations

Time (EST) Temp. Windchill Dew Point Humidity Pressure Visibility Wind Dir Wind Speed Gust Speed Precip Events Conditions
12:53 AM 35.1 °F 30.1 °F 32.0 °F 89% 30.05 in 1.2 mi NE 5.8 mph - N/A   Overcast
1:20 AM 35.1 °F 30.1 °F 33.1 °F 92% 30.02 in 2.0 mi NE 5.8 mph - 0.00 in Rain Light Rain
1:38 AM 35.1 °F 30.1 °F 33.1 °F 92% 30.02 in 1.8 mi NE 5.8 mph - 0.00 in Rain Light Rain
1:53 AM 35.1 °F 30.1 °F 33.1 °F 92% 30.02 in 1.8 mi ENE 5.8 mph - 0.00 in   Overcast
2:37 AM 35.1 °F 30.1 °F 32.0 °F 89% 30.00 in 1.0 mi NE 5.8 mph - N/A   Overcast
2:53 AM 35.1 °F 30.1 °F 33.1 °F 92% 30.00 in 1.0 mi NNE 5.8 mph - N/A   Overcast
3:09 AM 35.1 °F 30.1 °F 32.0 °F 89% 29.99 in 0.8 mi NE 5.8 mph - N/A   Overcast
3:20 AM 35.1 °F 30.1 °F 33.1 °F 92% 29.98 in 1.0 mi NE 5.8 mph - N/A   Overcast
3:53 AM 35.1 °F 30.1 °F 32.0 °F 89% 29.98 in 0.8 mi NE 5.8 mph - N/A   Mist
4:53 AM 35.1 °F 31.0 °F 33.1 °F 92% 30.00 in 0.8 mi NE 4.6 mph - N/A   Mist
5:53 AM 35.1 °F 28.6 °F 33.1 °F 92% 30.00 in 0.8 mi East 8.1 mph - N/A   Mist
6:37 AM 34.0 °F 27.2 °F 32.0 °F 92% 29.98 in 1.0 mi ENE 8.1 mph - N/A   Overcast
6:53 AM 34.0 °F 28.0 °F 32.0 °F 92% 29.99 in 1.0 mi ENE 6.9 mph - N/A   Overcast
7:06 AM 34.0 °F 28.0 °F 32.0 °F 92% 29.98 in 1.2 mi East 6.9 mph - N/A   Overcast
7:18 AM 34.0 °F 28.0 °F 32.0 °F 92% 29.98 in 0.8 mi East 6.9 mph - N/A   Overcast
7:39 AM 34.0 °F 27.2 °F 32.0 °F 92% 29.97 in 1.0 mi East 8.1 mph - N/A   Overcast
7:53 AM 34.0 °F 27.2 °F 32.0 °F 92% 29.98 in 1.0 mi ENE 8.1 mph - N/A   Overcast
8:11 AM 34.0 °F 27.2 °F 32.0 °F 92% 29.96 in 0.8 mi ENE 8.1 mph - N/A   Overcast
8:30 AM 34.0 °F 28.0 °F 32.0 °F 92% 29.97 in 1.0 mi ENE 6.9 mph - N/A   Overcast
8:53 AM 34.0 °F 27.2 °F 32.0 °F 92% 29.97 in 1.2 mi East 8.1 mph - N/A   Overcast
9:22 AM 35.1 °F 30.1 °F 33.1 °F 92% 29.95 in 2.0 mi East 5.8 mph - 0.00 in   Overcast
9:46 AM 35.1 °F 28.6 °F 33.1 °F 92% 29.93 in 4.0 mi ENE 8.1 mph - 0.00 in   Overcast
9:53 AM 35.1 °F 29.3 °F 33.1 °F 92% 29.94 in 3.0 mi ENE 6.9 mph - 0.00 in   Overcast
10:03 AM 35.1 °F 27.9 °F 33.1 °F 92% 29.92 in 2.0 mi East 9.2 mph - N/A   Overcast
10:17 AM 35.1 °F 28.6 °F 33.1 °F 92% 29.92 in 2.0 mi ENE 8.1 mph - 0.00 in   Overcast
10:28 AM 35.1 °F 28.6 °F 33.1 °F 92% 29.91 in 1.5 mi ENE 8.1 mph - 0.00 in   Overcast
10:53 AM 36.0 °F 30.3 °F 33.1 °F 89% 29.93 in 1.5 mi ENE 6.9 mph - 0.00 in   Overcast
11:07 AM 36.0 °F 29.0 °F 34.0 °F 93% 29.90 in 2.0 mi ENE 9.2 mph - 0.00 in   Overcast
11:35 AM 36.0 °F 29.6 °F 34.0 °F 93% 29.88 in 1.8 mi East 8.1 mph - 0.00 in   Overcast
11:53 AM 36.0 °F 29.6 °F 34.0 °F 93% 29.88 in 2.0 mi East 8.1 mph - 0.00 in   Overcast
12:30 PM 36.0 °F 30.3 °F 35.1 °F 97% 29.82 in 2.0 mi ENE 6.9 mph - N/A   Overcast
12:37 PM 36.0 °F 31.1 °F 35.1 °F 97% 29.82 in 1.0 mi ENE 5.8 mph - N/A   Overcast
12:53 PM 36.0 °F 29.6 °F 35.1 °F 97% 29.81 in 1.0 mi NE 8.1 mph - N/A   Overcast
1:53 PM 36.0 °F 32.1 °F 35.1 °F 97% 29.76 in 0.5 mi NNE 4.6 mph - N/A Fog Fog
2:53 PM 37.0 °F 32.4 °F 36.0 °F 96% 29.73 in 0.2 mi NE 5.8 mph - N/A Fog Fog
3:21 PM 37.0 °F 31.6 °F 36.0 °F 96% 29.70 in 0.2 mi NE 6.9 mph - N/A Fog , Thunderstorm Fog
3:34 PM 37.9 °F 35.5 °F 36.0 °F 93% 29.70 in 0.2 mi Variable 3.5 mph - 0.06 in Fog , Rain , Thunderstorm Thunderstorms and Rain
3:46 PM 37.9 °F 34.4 °F 36.0 °F 93% 29.69 in 1.2 mi NNE 4.6 mph - 0.07 in Rain , Thunderstorm Light Rain
3:53 PM 37.0 °F 33.3 °F 36.0 °F 96% 29.70 in 1.2 mi ESE 4.6 mph - 0.08 in Rain Light Rain
4:02 PM 37.9 °F 33.5 °F 37.0 °F 97% 29.67 in 1.0 mi ENE 5.8 mph - 0.03 in Rain Rain
4:53 PM 41.0 °F 34.7 °F 39.9 °F 96% 29.74 in 3.0 mi WSW 10.4 mph - 0.05 in Rain Light Rain
5:09 PM 42.1 °F 36.6 °F 39.9 °F 92% 29.73 in 10.0 mi West 9.2 mph - 0.00 in   Overcast
5:53 PM 39.9 °F 35.8 °F 37.9 °F 93% 29.75 in 10.0 mi SW 5.8 mph - 0.00 in Rain Light Rain
6:44 PM 37.0 °F - 36.0 °F 96% 29.75 in 1.8 mi Calm Calm - 0.01 in Rain Light Rain
6:53 PM 36.0 °F 32.1 °F 35.1 °F 97% 29.77 in 1.2 mi WSW 4.6 mph - 0.01 in   Overcast
7:07 PM 36.0 °F 30.3 °F 35.1 °F 97% 29.78 in 3.0 mi SW 6.9 mph - N/A   Overcast
7:53 PM 37.0 °F 31.6 °F 36.0 °F 96% 29.80 in 10.0 mi WSW 6.9 mph - N/A   Partly Cloudy
8:53 PM 39.0 °F 35.7 °F 37.0 °F 93% 29.84 in 10.0 mi West 4.6 mph - N/A   Clear
9:53 PM 30.0 °F 26.5 °F 28.9 °F 96% 29.86 in 4.0 mi WSW 3.5 mph - N/A   Clear
10:36 PM 30.0 °F - 28.9 °F 96% 29.87 in 1.8 mi Calm Calm - N/A   Clear
10:43 PM 30.9 °F - 30.0 °F 96% 29.87 in 1.2 mi Calm Calm - N/A   Partly Cloudy
10:49 PM 30.2 °F - 28.4 °F 93% 29.87 in 3.0 mi Calm Calm - N/A   Clear
10:53 PM 28.9 °F - 27.0 °F 92% 29.89 in 4.0 mi Calm Calm - N/A   Clear
11:53 PM 26.1 °F 21.9 °F 25.0 °F 96% 29.91 in 4.0 mi WSW 3.5 mph - N/A   Clear